When you browse on this site, cookies collect data to enhance your experience and personalize the content and advertising you see.
Visit our Privacy Policy to learn more. By continuing to use the site, you agree to this use of cookies and data.
  • In Latvia
  • List of Countries
  • For 7 days
  • Water Temperature
  • Weather Map
  • Weather Widgets
  • user-avatar
    Login

    Hourly Weather Pratteln

    Today, 19 October, Saturday

    Time Temperature Precipitation Wind Pressure Humidity
    00:00 +13°C° 1.5 mm 1 mps 724 mmHg 96%
    01:00 +13°C° 0 mm 1 mps 724 mmHg 96%
    02:00 +13°C° 1.2 mm 1 mps 723 mmHg 96%
    03:00 +13°C° 1.2 mm 1 mps 723 mmHg 97%
    04:00 +13°C° 1.2 mm 1 mps 722 mmHg 97%
    05:00 +13°C° 2 mm 1 mps 723 mmHg 97%
    06:00 +13°C° 2 mm 1 mps 723 mmHg 97%
    07:00 +13°C° 0 mm 2 mps 722 mmHg 98%
    08:00 +13°C° 2.4 mm 2 mps 722 mmHg 98%
    09:00 +13°C° 2.4 mm 1 mps 722 mmHg 97%
    10:00 +13°C° 2.4 mm 1 mps 723 mmHg 96%
    11:00 +14°C° 0.4 mm 1 mps 722 mmHg 95%
    12:00 +15°C° 0.4 mm 1 mps 722 mmHg 93%
    13:00 +15°C° 0.4 mm 1 mps 722 mmHg 91%
    14:00 +15°C° 0.1 mm 1 mps 722 mmHg 90%
    15:00 +16°C° 0.1 mm 1 mps 721 mmHg 89%
    16:00 +16°C° 0.1 mm 1 mps 721 mmHg 89%
    17:00 +15°C° 0 mm 1 mps 721 mmHg 91%
    18:00 +14°C° 0 mm 1 mps 721 mmHg 93%
    19:00 +13°C° 0 mm 1 mps 721 mmHg 95%
    20:00 +13°C° 0.1 mm 1 mps 721 mmHg 94%
    21:00 +12°C° 0.1 mm 1 mps 721 mmHg 94%
    22:00 +12°C° 0.1 mm 1 mps 721 mmHg 94%
    23:00 +12°C° 0 mm 1 mps 721 mmHg 94%

    Tomorrow, 20 October, Sunday

    Time Temperature Precipitation Wind Pressure Humidity
    00:00 +12°C° 0 mm 1 mps 721 mmHg 94%
    01:00 +11°C° 0 mm 1 mps 721 mmHg 94%
    02:00 +11°C° 0 mm 1 mps 721 mmHg 94%
    03:00 +11°C° 0 mm 1 mps 721 mmHg 94%
    04:00 +11°C° 0 mm 1 mps 720 mmHg 94%
    05:00 +10°C° 0 mm 1 mps 720 mmHg 94%
    06:00 +10°C° 0 mm 1 mps 721 mmHg 94%
    07:00 +10°C° 0 mm 1 mps 721 mmHg 94%
    08:00 +12°C° 0 mm 1 mps 721 mmHg 90%
    09:00 +14°C° 0 mm 1 mps 721 mmHg 86%
    10:00 +15°C° 0 mm 1 mps 721 mmHg 82%
    11:00 +18°C° 0 mm 1 mps 721 mmHg 76%
    12:00 +19°C° 0 mm 1 mps 721 mmHg 70%
    13:00 +21°C° 0 mm 1 mps 721 mmHg 65%
    14:00 +21°C° 0 mm 1 mps 721 mmHg 69%
    15:00 +20°C° 0 mm 1 mps 721 mmHg 72%
    16:00 +20°C° 0 mm 1 mps 721 mmHg 76%
    17:00 +19°C° 0 mm 1 mps 721 mmHg 80%
    18:00 +16°C° 0 mm 1 mps 722 mmHg 83%
    19:00 +15°C° 0 mm 1 mps 722 mmHg 86%
    20:00 +15°C° 0 mm 1 mps 722 mmHg 86%
    21:00 +15°C° 0 mm 1 mps 722 mmHg 86%
    22:00 +14°C° 0 mm 1 mps 723 mmHg 86%
    23:00 +14°C° 0 mm 1 mps 723 mmHg 86%

    Day after tomorrow, 21 October, Monday

    Time Temperature Precipitation Wind Pressure Humidity
    00:00 +14°C° 0 mm 1 mps 723 mmHg 86%
    01:00 +14°C° 0 mm 1 mps 724 mmHg 86%
    02:00 +14°C° 0.1 mm 1 mps 724 mmHg 89%
    03:00 +13°C° 0.1 mm 1 mps 724 mmHg 91%
    04:00 +13°C° 0.1 mm 2 mps 725 mmHg 94%
    05:00 +13°C° 0.2 mm 1 mps 725 mmHg 94%
    06:00 +13°C° 0.2 mm 1 mps 726 mmHg 95%
    07:00 +12°C° 0.2 mm 1 mps 726 mmHg 96%
    08:00 +13°C° 0.3 mm 1 mps 727 mmHg 94%
    09:00 +13°C° 0.3 mm 1 mps 727 mmHg 92%
    10:00 +13°C° 0.3 mm 1 mps 728 mmHg 91%
    11:00 +13°C° 0.3 mm 1 mps 728 mmHg 90%
    12:00 +13°C° 0.3 mm 1 mps 728 mmHg 89%
    13:00 +13°C° 0.3 mm 1 mps 728 mmHg 89%
    14:00 +12°C° 0.1 mm 1 mps 728 mmHg 89%
    15:00 +12°C° 0.1 mm 1 mps 728 mmHg 89%
    16:00 +12°C° 0.1 mm 1 mps 728 mmHg 89%
    17:00 +11°C° 0.1 mm 1 mps 729 mmHg 90%
    18:00 +11°C° 0.1 mm 1 mps 729 mmHg 91%
    19:00 +11°C° 0.1 mm 1 mps 730 mmHg 92%
    20:00 +10°C° 0.4 mm 0 mps 730 mmHg 92%
    21:00 +10°C° 0.4 mm 0 mps 730 mmHg 93%
    22:00 +10°C° 0.4 mm 0 mps 731 mmHg 93%
    23:00 +10°C° 0.2 mm 0 mps 731 mmHg 94%

    22 October, Tuesday

    Time Temperature Precipitation Wind Pressure Humidity
    00:00 +10°C° 0.2 mm 0 mps 731 mmHg 94%
    01:00 +10°C° 0.2 mm 0 mps 731 mmHg 94%
    02:00 +10°C° 0 mm 0 mps 731 mmHg 94%
    03:00 +10°C° 0 mm 0 mps 731 mmHg 94%
    04:00 +10°C° 0 mm 0 mps 731 mmHg 94%
    05:00 +10°C° 0 mm 0 mps 731 mmHg 94%
    06:00 +9°C° 0 mm 0 mps 731 mmHg 94%
    07:00 +9°C° 0 mm 0 mps 731 mmHg 94%
    08:00 +11°C° 0 mm 1 mps 730 mmHg 92%
    09:00 +12°C° 0 mm 1 mps 730 mmHg 90%
    10:00 +13°C° 0 mm 1 mps 730 mmHg 89%
    11:00 +14°C° 0 mm 1 mps 730 mmHg 87%
    12:00 +14°C° 0 mm 1 mps 730 mmHg 85%
    13:00 +15°C° 0 mm 2 mps 730 mmHg 84%
    14:00 +15°C° 0 mm 2 mps 730 mmHg 84%
    15:00 +15°C° 0 mm 2 mps 729 mmHg 85%
    16:00 +15°C° 0 mm 2 mps 729 mmHg 85%
    17:00 +14°C° 0 mm 1 mps 729 mmHg 88%
    18:00 +14°C° 0 mm 1 mps 729 mmHg 91%
    19:00 +13°C° 0 mm 1 mps 729 mmHg 94%
    20:00 +13°C° 0 mm 1 mps 729 mmHg 94%
    21:00 +12°C° 0 mm 1 mps 729 mmHg 95%
    22:00 +12°C° 0 mm 1 mps 729 mmHg 95%
    23:00 +12°C° 0 mm 1 mps 728 mmHg 95%

    23 October, Wednesday

    Time Temperature Precipitation Wind Pressure Humidity
    00:00 +11°C° 0 mm 1 mps 728 mmHg 96%
    01:00 +11°C° 0 mm 1 mps 728 mmHg 96%
    02:00 +11°C° 0 mm 1 mps 728 mmHg 96%
    03:00 +11°C° 0 mm 1 mps 728 mmHg 96%
    04:00 +11°C° 0 mm 1 mps 727 mmHg 96%
    05:00 +11°C° 0 mm 1 mps 727 mmHg 96%
    06:00 +11°C° 0 mm 1 mps 727 mmHg 96%
    07:00 +11°C° 0 mm 1 mps 727 mmHg 96%
    08:00 +12°C° 0 mm 1 mps 726 mmHg 93%
    09:00 +13°C° 0 mm 2 mps 726 mmHg 91%
    10:00 +13°C° 0 mm 2 mps 726 mmHg 88%
    11:00 +14°C° 0 mm 2 mps 726 mmHg 85%
    12:00 +15°C° 0 mm 2 mps 726 mmHg 81%
    13:00 +16°C° 0 mm 2 mps 725 mmHg 78%
    14:00 +16°C° 0 mm 2 mps 725 mmHg 79%
    15:00 +16°C° 0 mm 2 mps 724 mmHg 81%
    16:00 +16°C° 0 mm 2 mps 724 mmHg 82%
    17:00 +15°C° 0 mm 2 mps 724 mmHg 86%
    18:00 +14°C° 0 mm 2 mps 724 mmHg 90%
    19:00 +12°C° 0 mm 1 mps 724 mmHg 95%
    20:00 +12°C° 0 mm 1 mps 723 mmHg 95%
    21:00 +12°C° 0 mm 2 mps 723 mmHg 94%
    22:00 +12°C° 0 mm 2 mps 723 mmHg 94%
    23:00 +11°C° 0 mm 1 mps 723 mmHg 95%

    24 October, Thursday

    Time Temperature Precipitation Wind Pressure Humidity
    00:00 +11°C° 0 mm 1 mps 723 mmHg 95%
    01:00 +11°C° 0 mm 1 mps 723 mmHg 95%
    02:00 +11°C° 0 mm 1 mps 723 mmHg 95%
    03:00 +11°C° 0 mm 1 mps 723 mmHg 94%
    04:00 +11°C° 0 mm 1 mps 723 mmHg 94%
    05:00 +11°C° 0 mm 1 mps 723 mmHg 93%
    06:00 +11°C° 0 mm 1 mps 723 mmHg 93%
    07:00 +11°C° 0 mm 1 mps 723 mmHg 93%
    08:00 +13°C° 0 mm 1 mps 724 mmHg 88%
    09:00 +14°C° 0 mm 1 mps 724 mmHg 84%
    10:00 +16°C° 0 mm 1 mps 724 mmHg 79%
    11:00 +18°C° 0 mm 1 mps 724 mmHg 75%
    12:00 +19°C° 0 mm 1 mps 724 mmHg 71%
    13:00 +20°C° 0 mm 1 mps 724 mmHg 67%
    14:00 +20°C° 0 mm 1 mps 724 mmHg 70%
    15:00 +20°C° 0 mm 1 mps 724 mmHg 74%
    16:00 +19°C° 0 mm 1 mps 724 mmHg 77%
    17:00 +18°C° 0 mm 1 mps 724 mmHg 82%
    18:00 +15°C° 0 mm 1 mps 724 mmHg 87%
    19:00 +14°C° 0 mm 1 mps 724 mmHg 91%
    20:00 +13°C° 0 mm 1 mps 725 mmHg 91%
    21:00 +13°C° 0 mm 1 mps 725 mmHg 92%
    22:00 +13°C° 0 mm 1 mps 726 mmHg 92%
    23:00 +13°C° 0 mm 1 mps 726 mmHg 92%
    Show more